Location: Dover
(48.8500°N, 53.9833°W)
Time: 17:39:43
(UTC+00:00)

ISS - Pass Details

Date: 14 November 2025
Orbit: 416 x 420 km, 51.6° (Epoch: 09 December)

Event Time Altitude Azimuth Distance (km) Brightness Sun altitude
Rises 22:33:41 0° 242° (WSW) 2,361 1.0 -25.8°
Reaches altitude 10° 22:35:46 10° 241° (WSW) 1,498 -0.2 -26.1°
Enters shadow 22:37:09 23° 238° (WSW) 954 -1.4 -26.3°
